AKJ752 VABB-VOBL

Flight info

Callsign AKJ752
Flight time N/A
Altitude 37000
Route VEVAK2A EPKOS Q9 RIKBU RIKBU7E
Aircraft B38M/M-SDE1FGHILORVWXY/HB1

Departure

Time 2026-04-29 08:17
Airport Chhatrapati Shivaji Maharaj International Airport (VABB)

Arrival

Time N/A
Airport Kempegowda International Airport Bengaluru (VOBL)
Time Latitude Longitude Altitude Speed Heading
2026-04-29 07:35 19.09152 72.85366 51 ft 0 kts
2026-04-29 08:03 19.09139 72.85366 46 ft 4 kts
2026-04-29 08:03 19.09116 72.85366 50 ft 4 kts
2026-04-29 08:04 19.09096 72.85355 50 ft 4 kts 59°
2026-04-29 08:04 19.09090 72.85331 46 ft 4 kts 89°
2026-04-29 08:04 19.09090 72.85314 50 ft 0 kts 89°
2026-04-29 08:08 19.09090 72.85316 50 ft 1 kts 89°
2026-04-29 08:08 19.09090 72.85320 49 ft 2 kts 89°
2026-04-29 08:08 19.09091 72.85344 49 ft 5 kts 89°
2026-04-29 08:09 19.09085 72.85384 51 ft 7 kts 115°
2026-04-29 08:09 19.09041 72.85403 48 ft 8 kts 171°
2026-04-29 08:09 19.09023 72.85446 52 ft 8 kts 85°
2026-04-29 08:09 19.09025 72.85510 52 ft 10 kts 89°
2026-04-29 08:10 19.09026 72.85588 50 ft 12 kts 89°
2026-04-29 08:10 19.09027 72.85687 51 ft 15 kts 89°
2026-04-29 08:10 19.09030 72.85801 51 ft 17 kts 89°
2026-04-29 08:10 19.09032 72.85931 51 ft 19 kts 89°
2026-04-29 08:11 19.09034 72.86076 51 ft 21 kts 89°
2026-04-29 08:11 19.09036 72.86235 51 ft 23 kts 89°
2026-04-29 08:11 19.09037 72.86408 51 ft 24 kts 89°
2026-04-29 08:11 19.09041 72.86593 52 ft 26 kts 88°
2026-04-29 08:12 19.09043 72.86786 53 ft 27 kts 89°
2026-04-29 08:12 19.09046 72.86992 52 ft 29 kts 89°
2026-04-29 08:12 19.09051 72.87206 52 ft 30 kts 91°
2026-04-29 08:12 19.09052 72.87435 52 ft 32 kts 89°
2026-04-29 08:13 19.09055 72.87677 51 ft 34 kts 88°
2026-04-29 08:13 19.09059 72.87922 51 ft 20 kts 89°
2026-04-29 08:13 19.09034 72.88046 51 ft 12 kts 154°
2026-04-29 08:13 19.09002 72.88052 50 ft 0 kts 177°
2026-04-29 08:14 19.08991 72.88052 50 ft 4 kts 177°
2026-04-29 08:14 19.08951 72.88052 49 ft 8 kts 186°
2026-04-29 08:15 19.08899 72.88021 48 ft 10 kts 237°
2026-04-29 08:15 19.08887 72.87950 50 ft 2 kts 269°
2026-04-29 08:15 19.08887 72.87949 50 ft 0 kts 269°
2026-04-29 08:15 19.08887 72.87929 50 ft 8 kts 269°
2026-04-29 08:16 19.08883 72.87667 50 ft 65 kts 269°
2026-04-29 08:16 19.08874 72.86996 52 ft 115 kts 269°
2026-04-29 08:16 19.08853 72.86011 50 ft 153 kts 268°
2026-04-29 08:16 19.08880 72.84872 413 ft 162 kts 267°
2026-04-29 08:17 19.08894 72.83590 610 ft 182 kts 265°
2026-04-29 08:17 19.08868 72.82279 1129 ft 180 kts 268°
2026-04-29 08:17 19.08837 72.80923 1615 ft 186 kts 267°
2026-04-29 08:17 19.08808 72.79428 1759 ft 223 kts 267°
2026-04-29 08:18 19.08759 72.77745 2341 ft 233 kts 268°
2026-04-29 08:18 19.08674 72.75993 3004 ft 242 kts 270°
2026-04-29 08:18 19.08593 72.74193 3662 ft 251 kts 265°
2026-04-29 08:18 19.08111 72.72379 4261 ft 264 kts 243°
2026-04-29 08:19 19.06778 72.70994 4818 ft 280 kts 206°
2026-04-29 08:19 19.04842 72.70730 5519 ft 288 kts 168°
2026-04-29 08:19 19.03062 72.71644 6260 ft 291 kts 142°
2026-04-29 08:19 19.01596 72.73137 7002 ft 292 kts 135°
2026-04-29 08:20 19.00024 72.74475 7761 ft 292 kts 155°
2026-04-29 08:20 18.98062 72.74992 8291 ft 293 kts 182°
2026-04-29 08:20 18.96065 72.74880 9216 ft 287 kts 185°
2026-04-29 08:20 18.94083 72.74765 10091 ft 282 kts 186°
2026-04-29 08:21 18.92092 72.74670 10739 ft 289 kts 184°
2026-04-29 08:21 18.90079 72.74595 11541 ft 290 kts 184°
2026-04-29 08:21 18.88012 72.74532 12090 ft 302 kts 184°
2026-04-29 08:21 18.85927 72.74480 12901 ft 303 kts 184°
2026-04-29 08:22 18.83794 72.74431 13646 ft 309 kts 182°
2026-04-29 08:22 18.81625 72.74391 14313 ft 314 kts 183°
2026-04-29 08:22 18.79425 72.74336 15039 ft 317 kts 183°
2026-04-29 08:22 18.77211 72.74328 15728 ft 323 kts 175°
2026-04-29 08:23 18.75037 72.74902 16344 ft 329 kts 162°
2026-04-29 08:23 18.72869 72.75748 16990 ft 334 kts 160°
2026-04-29 08:23 18.70679 72.76606 17681 ft 337 kts 161°
2026-04-29 08:23 18.68415 72.77455 17989 ft 354 kts 161°
2026-04-29 08:24 18.66025 72.78320 18156 ft 372 kts 162°
2026-04-29 08:24 18.63523 72.79209 18395 ft 385 kts 162°
2026-04-29 08:24 18.60974 72.80102 18906 ft 387 kts 162°
2026-04-29 08:24 18.58402 72.80998 19391 ft 392 kts 162°
2026-04-29 08:25 18.57559 72.81291 19538 ft 394 kts 162°